ROMMA est une association bénévole à but non lucratif. Votre soutien est indispensable : ADHERER à ROMMA ou FAIRE un DON

Chambon - (38, Isère)

Oisans (2460 m)   Longitude: 06° 10' 42" E   Latitude: 45° 01' 32" N Station partenaire n°803
 

Détail journalier du     <<     >>

Température Humidité Vent Dir Rafale Dir. rafale Neige 1 Neige 2
Heure (°C) (%) (km/h) (km/h) (cm) (cm)
01:00 -6.4988SSO17SSO159213
02:00 -7.49613SSO24SO159213
03:00 -7.89619SO29SO159213
04:00 -8.29613S28SO159213
05:00 -8.39410S20S159213
06:00 -8.2935SSO20SO159213
07:00 -8.99412SSO30SSO159213
08:00 -10.19419SSO34SO159213
09:00 -9.58915SSO34SSO159213
10:00 -8.9919SO27SO159213
11:00 -9.49213SSO37OSO159213
12:00 -9.59313OSO36OSO159213
13:00 -10.19320OSO52O161214
14:00 -10.69422O69O162217
15:00 -10.89314O57O161216
16:00 -11.5939N64N164216
17:00 -12.29313NNE53NNO167218
18:00 -12.69315N51N167220
19:00 -13.39317N41N166221
20:00 -13.39326NNE43NNE163222
21:00 -12.59312NE40NE164223
22:00 -12.79320NNE49NE165222
23:00 -13.59332NE47NE163225
minuit -13.49325NE45NE163224

Graphique du 11-03-2019

 

Serveur OMMA